This demonstration page uses our WeatherBlox Daily Observations layout. Learn more.

Left ArrowRight Arrow

39.08367, -84.50855

Hourly Observations for May 12, 2022

Temp ( °F °C ) Dew Point ( °F °C ) Humidity (%) Winds ( mph kmh ) Pressure ( in mb ) Visibility ( mi km ) Precip ( " mm )
12:53 am 00:53 Clear 57 13.9 53 11.7 87 87 Calm 30.15 1021 10 16 0.00 0.00
1:53 am 01:53 Clear 56 13.3 54 12.2 93 93 Calm 30.14 1021 10 16 0.00 0.00
2:53 am 02:53 Clear 54 12.2 52 11.1 93 93 Calm 30.14 1021 10 16 0.00 0.00
3:53 am 03:53 Clear 53 11.7 52 11.1 96 96 Calm 30.14 1021 10 16 0.00 0.00
4:53 am 04:53 Clear 51 10.6 51 10.6 100 100 Calm 30.16 1021 10 16 0.00 0.00
5:53 am 05:53 Clear 52 11.1 52 11.1 100 100 Calm 30.17 1022 10 16 0.00 0.00
6:53 am 06:53 Sunny 51 10.6 51 10.6 100 100 Calm 30.19 1022 10 16 0.00 0.00
7:53 am 07:53 Sunny 56 13.3 55 12.8 97 97 Calm 30.19 1023 10 16 0.00 0.00
8:53 am 08:53 Sunny 61 16.1 56 13.3 84 84 Calm 30.18 1022 10 16 0.00 0.00
9:53 am 09:53 Sunny 67 19.4 57 13.9 71 71 Calm 30.18 1022 10 16 0.00 0.00
10:53 am 10:53 Sunny 73 22.8 57 13.9 57 57 Calm 30.17 1022 10 16 0.00 0.00
11:53 am 11:53 Sunny 79 26.1 55 12.8 44 44 S 5 7 30.17 1022 10 16 0.00 0.00
12:53 pm 12:53 Sunny 81 27.2 52 11.1 37 37 ESE 10 17 30.16 1021 10 16 0.00 0.00
1:53 pm 13:53 Sunny 83 28.3 56 13.3 40 40 ENE 8 13 30.12 1020 10 16 0.00 0.00
2:53 pm 14:53 Sunny 84 28.9 54 12.2 36 36 NE 3 6 30.11 1020 10 16 0.00 0.00
3:53 pm 15:53 Sunny 84 28.9 54 12.2 36 36 ESE 6 9 30.09 1019 10 16 0.00 0.00
4:53 pm 16:53 Sunny 84 28.9 56 13.3 38 38 NE 9 15 30.07 1018 10 16 0.00 0.00
5:53 pm 17:53 Sunny 83 28.3 56 13.3 40 40 ENE 13 20 30.06 1018 10 16 0.00 0.00
6:53 pm 18:53 Sunny 82 27.8 55 12.8 40 40 ESE 6 9 30.06 1018 10 16 0.00 0.00
7:53 pm 19:53 Sunny 78 25.6 56 13.3 47 47 ENE 5 7 30.05 1018 10 16 0.00 0.00
8:53 pm 20:53 Clear 69 20.6 60 15.6 73 73 Calm 30.06 1018 10 16 0.00 0.00
9:53 pm 21:53 Clear 65 18.3 58 14.4 78 78 Calm 30.06 1018 10 16 0.00 0.00
10:53 pm 22:53 Clear 62 16.7 58 14.4 86 86 Calm 30.06 1018 10 16 0.00 0.00
11:53 pm 23:53 Clear 60 15.6 58 14.4 93 93 Calm 30.06 1018 10 16 0.00 0.00

Powered by AerisWeather